Weather History for New Bedford, MA

Change the Weather History Date:

Thursday, December 13, 2012

  Actual Average Record
Temperature  
Mean Temperature 36 °F -  
Max Temperature 46 °F 44 °F 59 °F (1956)
Min Temperature 26 °F 29 °F 7 °F (1982)
Degree Days  
Heating Degree Days 29    
Moisture  
Dew Point 23 °F    
Average Humidity 70    
Maximum Humidity 92    
Minimum Humidity 37    
Precipitation  
Precipitation 0.00 in - - ()
Sea Level Pressure  
Sea Level Pressure 30.39 in    
Wind  
Wind Speed 1 mph (NNW)    
Max Wind Speed 6 mph    
Max Gust Speed -    
Visibility 10 miles    
Events      
Averages and records for this station are not official NWS values.
T = Trace of Precipitation, MM = Missing Value Source: NWS Daily Summary

Daily Weather History Graph

Daily Weather History Graph

Search for Another Location

Airport:

Trip Planner

Search our weather history database for the weather conditions in past years. The results will help you decide how hot, cold, wet, or windy it might be!

Date:

Astronomy

Dec. 13, 2012 Rise Set
Actual Time 7:02 AM EST 4:13 PM EST
Civil Twilight 6:31 AM EST 4:45 PM EST
Nautical Twilight 5:56 AM EST 5:20 PM EST
Astronomical Twilight 5:22 AM EST 5:54 PM EST
Moon 7:07 AM EST (12/13) 4:53 PM EST (12/13)
Length of Visible Light 10h 14m
Length of Day
9h 11m
New Moon, 0% of the Moon is Illuminated
Dec 13
New Moon
Dec 20
First Quarter
Dec 28
Full
Jan 4
Last Quarter
Jan 11
New

Hourly Weather History & Observations

Time (EST) Temp. Windchill Dew Point Humidity Pressure Visibility Wind Dir Wind Speed Gust Speed Precip Events Conditions
12:53 AM 30.9 °F 27.5 °F 24.1 °F 76% 30.40 in 10.0 mi North 3.5 mph - N/A   Clear
1:53 AM 30.9 °F - 24.1 °F 76% 30.42 in 10.0 mi Calm Calm - N/A   Clear
2:53 AM 28.0 °F - 21.9 °F 78% 30.42 in 10.0 mi Calm Calm - N/A   Clear
3:53 AM 30.0 °F 26.5 °F 24.1 °F 79% 30.40 in 10.0 mi NNW 3.5 mph - N/A   Clear
4:53 AM 27.0 °F - 23.0 °F 85% 30.41 in 10.0 mi Calm Calm - N/A   Clear
5:53 AM 27.0 °F - 23.0 °F 85% 30.43 in 10.0 mi Calm Calm - N/A   Clear
6:53 AM 27.0 °F - 23.0 °F 85% 30.42 in 10.0 mi Calm Calm - N/A   Clear
7:53 AM 28.0 °F - 24.1 °F 85% 30.45 in 10.0 mi Calm Calm - N/A   Clear
8:53 AM 30.0 °F - 26.1 °F 85% 30.46 in 10.0 mi Calm Calm - N/A   Clear
9:53 AM 37.9 °F 33.5 °F 26.1 °F 62% 30.43 in 10.0 mi North 5.8 mph - N/A   Clear
10:53 AM 42.1 °F - 24.1 °F 49% 30.43 in 10.0 mi Calm Calm - N/A   Clear
11:53 AM 44.1 °F - 21.9 °F 42% 30.41 in 10.0 mi Calm Calm - N/A   Clear
12:53 PM 46.0 °F 43.9 °F 21.0 °F 37% 30.37 in 10.0 mi Variable 4.6 mph - N/A   Clear
1:53 PM 45.0 °F - 19.9 °F 37% 30.38 in 10.0 mi Calm Calm - N/A   Clear
2:53 PM 45.0 °F 42.6 °F 21.0 °F 39% 30.36 in 10.0 mi West 4.6 mph - N/A   Clear
3:53 PM 42.1 °F - 21.0 °F 43% 30.36 in 10.0 mi Calm Calm - N/A   Clear
4:53 PM 37.0 °F - 23.0 °F 57% 30.36 in 10.0 mi Calm Calm - N/A   Clear
7:53 PM 28.4 °F - 24.8 °F 86% 30.35 in 10.0 mi Calm Calm - N/A   Clear
8:53 PM 27.0 °F - 24.1 °F 89% 30.34 in 10.0 mi Calm Calm - N/A   Clear
9:53 PM 26.1 °F - 24.1 °F 92% 30.33 in 9.0 mi Calm Calm - N/A   Clear
10:53 PM 26.1 °F - 23.0 °F 88% 30.31 in 9.0 mi Calm Calm - N/A   Clear
11:53 PM 26.1 °F - 23.0 °F 88% 30.30 in 7.0 mi Calm Calm - N/A   Clear